LNR08TG FAOR-HTZA

Flight info

Callsign LNR08TG
Flight time 3h 7m
Altitude 39000
Route EGMEN1D EGMEN UQ2 EPSEK UM307 VBR UM310 DV
Aircraft A346/H-SDE2E3FGHIJ3J4J5M1RWXY/LB1D1

Departure

Time 2026-05-07 15:40
Airport O.R. Tambo International Airport (FAOR)

Arrival

Time 2026-05-07 18:47
Airport Abeid Amani Karume International Airport (HTZA)
Time Latitude Longitude Altitude Speed Heading
2026-05-07 15:02 -26.13164 28.23332 5558 ft 0 kts 277°
2026-05-07 15:13 -26.13165 28.23342 5554 ft 15 kts 276°
2026-05-07 15:14 -26.13164 28.23332 5555 ft 0 kts 277°
2026-05-07 15:28 -26.13166 28.23356 5557 ft 4 kts 277°
2026-05-07 15:28 -26.13169 28.23379 5557 ft 4 kts 279°
2026-05-07 15:28 -26.13175 28.23399 5556 ft 4 kts 313°
2026-05-07 15:28 -26.13185 28.23406 5557 ft 4 kts 354°
2026-05-07 15:29 -26.13208 28.23405 5557 ft 4 kts
2026-05-07 15:29 -26.13232 28.23402 5556 ft 1 kts
2026-05-07 15:31 -26.13225 28.23403 5556 ft 6 kts
2026-05-07 15:32 -26.13164 28.23413 5555 ft 10 kts 15°
2026-05-07 15:32 -26.13115 28.23475 5558 ft 12 kts 94°
2026-05-07 15:32 -26.13126 28.23571 5555 ft 14 kts 95°
2026-05-07 15:32 -26.13128 28.23670 5556 ft 9 kts 77°
2026-05-07 15:33 -26.13079 28.23716 5554 ft 11 kts 16°
2026-05-07 15:33 -26.13000 28.23742 5555 ft 13 kts 16°
2026-05-07 15:33 -26.12910 28.23771 5553 ft 14 kts 16°
2026-05-07 15:33 -26.12812 28.23802 5556 ft 15 kts 15°
2026-05-07 15:34 -26.12707 28.23834 5555 ft 16 kts 15°
2026-05-07 15:34 -26.12585 28.23870 5553 ft 20 kts 15°
2026-05-07 15:34 -26.12444 28.23915 5551 ft 22 kts 15°
2026-05-07 15:34 -26.12289 28.23963 5548 ft 24 kts 15°
2026-05-07 15:35 -26.12119 28.24016 5547 ft 26 kts 15°
2026-05-07 15:35 -26.11939 28.24071 5544 ft 28 kts 15°
2026-05-07 15:35 -26.11755 28.24128 5534 ft 23 kts 15°
2026-05-07 15:35 -26.11598 28.24176 5534 ft 24 kts 15°
2026-05-07 15:36 -26.11432 28.24227 5533 ft 25 kts 15°
2026-05-07 15:36 -26.11259 28.24280 5530 ft 27 kts 15°
2026-05-07 15:36 -26.11069 28.24341 5523 ft 30 kts 16°
2026-05-07 15:36 -26.10930 28.24400 5521 ft 15 kts 43°
2026-05-07 15:37 -26.10914 28.24422 5520 ft 2 kts 57°
2026-05-07 15:37 -26.10909 28.24430 5519 ft 1 kts 57°
2026-05-07 15:37 -26.10906 28.24436 5519 ft 3 kts 57°
2026-05-07 15:37 -26.10886 28.24470 5517 ft 8 kts 57°
2026-05-07 15:38 -26.10856 28.24543 5516 ft 12 kts 90°
2026-05-07 15:38 -26.10914 28.24590 5517 ft 12 kts 193°
2026-05-07 15:38 -26.10930 28.24585 5517 ft 0 kts 196°
2026-05-07 15:38 -26.10931 28.24585 5517 ft 0 kts 196°
2026-05-07 15:39 -26.11125 28.24523 5527 ft 68 kts 195°
2026-05-07 15:39 -26.11831 28.24304 5541 ft 140 kts 195°
2026-05-07 15:40 -26.12972 28.23962 5608 ft 194 kts 198°
2026-05-07 15:40 -26.14337 28.23532 6306 ft 210 kts 197°
2026-05-07 15:40 -26.15777 28.23101 7222 ft 218 kts 197°
2026-05-07 15:40 -26.17248 28.22649 8155 ft 219 kts 198°
2026-05-07 15:41 -26.18755 28.22184 8738 ft 232 kts 199°
2026-05-07 15:41 -26.20395 28.21673 9073 ft 257 kts 198°
2026-05-07 15:41 -26.22193 28.21122 9501 ft 276 kts 199°
2026-05-07 15:41 -26.24082 28.20595 10297 ft 281 kts 192°
2026-05-07 15:42 -26.26048 28.20713 11184 ft 291 kts 169°
2026-05-07 15:42 -26.27928 28.21709 11769 ft 314 kts 148°
2026-05-07 15:42 -26.29516 28.23521 12125 ft 340 kts 134°
2026-05-07 15:42 -26.31050 28.25646 12398 ft 361 kts 133°
2026-05-07 15:43 -26.32672 28.27891 12755 ft 381 kts 133°
2026-05-07 15:43 -26.34413 28.30206 13221 ft 396 kts 134°
2026-05-07 15:43 -26.36199 28.32617 13860 ft 409 kts 128°
2026-05-07 15:43 -26.37498 28.35478 14523 ft 421 kts 108°
2026-05-07 15:44 -26.37824 28.38735 15169 ft 430 kts 85°
2026-05-07 15:44 -26.37104 28.41998 15842 ft 431 kts 64°
2026-05-07 15:44 -26.35522 28.44818 16530 ft 429 kts 45°
2026-05-07 15:44 -26.33426 28.47194 17181 ft 432 kts 39°
2026-05-07 15:45 -26.31297 28.49522 17869 ft 438 kts 41°
2026-05-07 15:45 -26.29218 28.52029 18633 ft 442 kts 44°
2026-05-07 15:45 -26.27209 28.54649 19245 ft 447 kts 46°
2026-05-07 15:45 -26.25231 28.57360 19873 ft 452 kts 47°
2026-05-07 15:46 -26.21305 28.62922 21145 ft 460 kts 47°
2026-05-07 15:46 -26.19331 28.65748 21771 ft 464 kts 47°
2026-05-07 15:46 -26.17341 28.68604 22399 ft 468 kts 47°
2026-05-07 15:47 -26.15333 28.71485 23024 ft 472 kts 46°
2026-05-07 15:47 -26.13309 28.74387 23629 ft 476 kts 46°
2026-05-07 15:47 -26.11268 28.77305 24100 ft 480 kts 46°
2026-05-07 15:47 -26.09204 28.80253 24610 ft 484 kts 46°
2026-05-07 15:48 -26.07123 28.83227 25122 ft 488 kts 45°
2026-05-07 15:48 -26.05031 28.86213 25635 ft 491 kts 45°
2026-05-07 15:48 -26.02917 28.89216 26133 ft 493 kts 44°
2026-05-07 15:48 -26.00468 28.91830 26504 ft 481 kts 26°
2026-05-07 15:49 -25.97543 28.93474 26984 ft 463 kts
2026-05-07 15:49 -25.94455 28.94137 27573 ft 446 kts 356°
2026-05-07 15:49 -25.91354 28.94393 28180 ft 446 kts 355°
2026-05-07 15:49 -25.88252 28.94629 28661 ft 450 kts 355°
2026-05-07 15:50 -25.85118 28.94884 29174 ft 453 kts 355°
2026-05-07 15:50 -25.81959 28.95163 29668 ft 456 kts 355°
2026-05-07 15:50 -25.78806 28.95458 30355 ft 453 kts 355°
2026-05-07 15:50 -25.75682 28.95757 31023 ft 449 kts 355°
2026-05-07 15:51 -25.72564 28.96222 31619 ft 456 kts
2026-05-07 15:51 -25.69459 28.97079 32127 ft 465 kts
2026-05-07 15:51 -25.66406 28.98338 32600 ft 475 kts 14°
2026-05-07 15:51 -25.63469 28.99990 33096 ft 484 kts 20°
2026-05-07 15:52 -25.60645 29.02066 33593 ft 494 kts 27°
2026-05-07 15:52 -25.58006 29.04552 34125 ft 503 kts 35°
2026-05-07 15:52 -25.55555 29.07353 34576 ft 507 kts 38°
2026-05-07 15:52 -25.53168 29.10231 34975 ft 508 kts 39°
2026-05-07 15:53 -25.50791 29.13117 35380 ft 506 kts 39°
2026-05-07 15:53 -25.48408 29.15984 35863 ft 503 kts 38°
2026-05-07 15:53 -25.46025 29.18818 36298 ft 502 kts 38°
2026-05-07 15:53 -25.43644 29.21633 36689 ft 501 kts 38°
2026-05-07 15:54 -25.41264 29.24461 37064 ft 501 kts 38°
2026-05-07 15:54 -25.38892 29.27283 37405 ft 500 kts 38°
2026-05-07 15:54 -25.36533 29.30092 37763 ft 499 kts 38°
2026-05-07 15:54 -25.34180 29.32893 38038 ft 500 kts 38°
2026-05-07 15:55 -25.31807 29.35715 38280 ft 501 kts 38°
2026-05-07 15:55 -25.29428 29.38542 38499 ft 502 kts 39°
2026-05-07 15:55 -25.27043 29.41375 38705 ft 504 kts 39°
2026-05-07 15:55 -25.24652 29.44214 38926 ft 504 kts 39°
2026-05-07 15:56 -25.22256 29.47057 39082 ft 505 kts 39°
2026-05-07 15:56 -25.17451 29.52754 39115 ft 506 kts 39°
2026-05-07 15:57 -25.12660 29.58429 39123 ft 504 kts 39°
2026-05-07 15:57 -25.07881 29.64079 39125 ft 503 kts 39°
2026-05-07 15:58 -25.03105 29.69721 39108 ft 503 kts 39°
2026-05-07 15:58 -24.98350 29.75329 39120 ft 503 kts 39°
2026-05-07 15:59 -24.93559 29.80973 39109 ft 504 kts 38°
2026-05-07 15:59 -24.88769 29.86611 39106 ft 503 kts 39°
2026-05-07 16:00 -24.83984 29.92232 39113 ft 504 kts 39°
2026-05-07 16:00 -24.79212 29.97878 39071 ft 502 kts 39°
2026-05-07 16:01 -24.74466 30.03505 39095 ft 502 kts 39°
2026-05-07 16:01 -24.69700 30.09141 39088 ft 503 kts 39°
2026-05-07 16:02 -24.64939 30.14779 39082 ft 502 kts 39°
2026-05-07 16:02 -24.60190 30.20401 39083 ft 501 kts 39°
2026-05-07 16:03 -24.55467 30.26059 39085 ft 503 kts 40°
2026-05-07 16:03 -24.50744 30.31729 39075 ft 502 kts 40°
2026-05-07 16:04 -24.46027 30.37378 39073 ft 502 kts 40°
2026-05-07 16:04 -24.41297 30.43031 39038 ft 500 kts 40°
2026-05-07 16:05 -24.36575 30.48669 39074 ft 498 kts 40°
2026-05-07 16:05 -24.31879 30.54270 39053 ft 499 kts 40°
2026-05-07 16:06 -24.27207 30.59838 39034 ft 499 kts 40°
2026-05-07 16:06 -24.22516 30.65419 39033 ft 499 kts 40°
2026-05-07 16:07 -24.17807 30.71015 39012 ft 498 kts 40°
2026-05-07 16:07 -24.13099 30.76603 39003 ft 498 kts 40°
2026-05-07 16:08 -24.08388 30.82189 39001 ft 499 kts 40°
2026-05-07 16:08 -24.03677 30.87765 38998 ft 499 kts 40°
2026-05-07 16:09 -23.98967 30.93335 39003 ft 499 kts 40°
2026-05-07 16:09 -23.94239 30.98923 38987 ft 501 kts 40°
2026-05-07 16:10 -23.89509 31.04506 38993 ft 501 kts 40°
2026-05-07 16:10 -23.84764 31.10102 38991 ft 501 kts 40°
2026-05-07 16:11 -23.80826 31.14739 38987 ft 501 kts 40°
2026-05-07 16:11 -23.76048 31.20361 38983 ft 501 kts 40°
2026-05-07 16:12 -23.71303 31.25936 38977 ft 501 kts 40°
2026-05-07 16:12 -23.66552 31.31508 38945 ft 501 kts 40°
2026-05-07 16:13 -23.61826 31.37047 38966 ft 502 kts 40°
2026-05-07 16:13 -23.57063 31.42628 38962 ft 502 kts 40°
2026-05-07 16:14 -23.52297 31.48204 38962 ft 502 kts 40°
2026-05-07 16:14 -23.47525 31.53758 38947 ft 501 kts 39°
2026-05-07 16:15 -23.42411 31.58903 38952 ft 494 kts 32°
2026-05-07 16:15 -23.37062 31.63588 38952 ft 493 kts 32°
2026-05-07 16:16 -23.31698 31.68260 38934 ft 493 kts 32°
2026-05-07 16:16 -23.26334 31.72939 38949 ft 494 kts 32°
2026-05-07 16:17 -23.20969 31.77628 38944 ft 494 kts 32°
2026-05-07 16:17 -23.15610 31.82304 38941 ft 494 kts 32°
2026-05-07 16:18 -23.10249 31.86979 38941 ft 493 kts 32°
2026-05-07 16:18 -23.04894 31.91645 38942 ft 493 kts 32°
2026-05-07 16:19 -22.99531 31.96312 38942 ft 493 kts 32°
2026-05-07 16:19 -22.94198 32.00995 38933 ft 494 kts 33°
2026-05-07 16:20 -22.88906 32.05782 38938 ft 495 kts 33°
2026-05-07 16:20 -22.83625 32.10563 38939 ft 494 kts 33°
2026-05-07 16:21 -22.78337 32.15332 38929 ft 494 kts 33°
2026-05-07 16:21 -22.73051 32.20089 38946 ft 494 kts 33°
2026-05-07 16:22 -22.67761 32.24843 38945 ft 494 kts 33°
2026-05-07 16:22 -22.62472 32.29594 38921 ft 494 kts 33°
2026-05-07 16:23 -22.57182 32.34339 38933 ft 494 kts 33°
2026-05-07 16:23 -22.51887 32.39086 38934 ft 493 kts 33°
2026-05-07 16:24 -22.46599 32.43818 38939 ft 493 kts 33°
2026-05-07 16:24 -22.41314 32.48544 38940 ft 493 kts 33°
2026-05-07 16:25 -22.36026 32.53268 38943 ft 493 kts 33°
2026-05-07 16:25 -22.30776 32.57955 38944 ft 493 kts 33°
2026-05-07 16:26 -22.25448 32.62707 38920 ft 493 kts 32°
2026-05-07 16:26 -22.20159 32.67420 38933 ft 492 kts 32°
2026-05-07 16:27 -22.14913 32.72087 38941 ft 492 kts 32°
2026-05-07 16:27 -22.09629 32.76784 38943 ft 492 kts 32°
2026-05-07 16:28 -22.04347 32.81476 38947 ft 492 kts 33°
2026-05-07 16:28 -21.99089 32.86227 38941 ft 492 kts 33°
2026-05-07 16:29 -21.93852 32.90994 38922 ft 492 kts 33°
2026-05-07 16:29 -21.88612 32.95750 38940 ft 493 kts 33°
2026-05-07 16:30 -21.83368 33.00500 38943 ft 493 kts 33°
2026-05-07 16:30 -21.78121 33.05246 38946 ft 493 kts 33°
2026-05-07 16:31 -21.72851 33.09953 38943 ft 492 kts 32°
2026-05-07 16:31 -21.67563 33.14641 38944 ft 492 kts 32°
2026-05-07 16:32 -21.62280 33.19326 38943 ft 492 kts 32°
2026-05-07 16:32 -21.57003 33.24004 38946 ft 492 kts 32°
2026-05-07 16:33 -21.51718 33.28687 38951 ft 492 kts 32°
2026-05-07 16:33 -21.46474 33.33328 38952 ft 492 kts 32°
2026-05-07 16:34 -21.41188 33.38002 38949 ft 492 kts 32°
2026-05-07 16:34 -21.35905 33.42670 38949 ft 492 kts 32°
2026-05-07 16:35 -21.30622 33.47333 38952 ft 492 kts 32°
2026-05-07 16:35 -21.25331 33.52000 38919 ft 493 kts 32°
2026-05-07 16:36 -21.20010 33.56687 38947 ft 496 kts 32°
2026-05-07 16:36 -21.14675 33.61382 38951 ft 496 kts 32°
2026-05-07 16:37 -21.09338 33.66074 38954 ft 496 kts 32°
2026-05-07 16:37 -21.04002 33.70762 38944 ft 496 kts 32°
2026-05-07 16:38 -20.98661 33.75451 38950 ft 495 kts 32°
2026-05-07 16:38 -20.93322 33.80132 38951 ft 495 kts 32°
2026-05-07 16:39 -20.87982 33.84809 38940 ft 497 kts 32°
2026-05-07 16:39 -20.82622 33.89500 38952 ft 498 kts 32°
2026-05-07 16:40 -20.77262 33.94189 38949 ft 498 kts 32°
2026-05-07 16:40 -20.71900 33.98872 38937 ft 498 kts 32°
2026-05-07 16:41 -20.66675 34.03763 38943 ft 500 kts 34°
2026-05-07 16:41 -20.61485 34.08724 38944 ft 500 kts 34°
2026-05-07 16:42 -20.56297 34.13678 38927 ft 500 kts 34°
2026-05-07 16:42 -20.51089 34.18639 38940 ft 502 kts 34°
2026-05-07 16:43 -20.45913 34.23564 38947 ft 502 kts 34°
2026-05-07 16:43 -20.40705 34.28516 38947 ft 502 kts 34°
2026-05-07 16:44 -20.35490 34.33470 38938 ft 502 kts 34°
2026-05-07 16:44 -20.30272 34.38423 38940 ft 502 kts 34°
2026-05-07 16:45 -20.25055 34.43368 38939 ft 502 kts 34°
2026-05-07 16:45 -20.19831 34.48315 38907 ft 503 kts 34°
2026-05-07 16:46 -20.14599 34.53264 38929 ft 504 kts 34°
2026-05-07 16:46 -20.09358 34.58222 38933 ft 504 kts 34°
2026-05-07 16:47 -20.04112 34.63179 38929 ft 504 kts 34°
2026-05-07 16:47 -19.98856 34.68139 38931 ft 504 kts 34°
2026-05-07 16:48 -19.93614 34.73083 38916 ft 504 kts 34°
2026-05-07 16:48 -19.88490 34.77910 38908 ft 503 kts 34°
2026-05-07 16:49 -19.83128 34.82678 38887 ft 499 kts 29°
2026-05-07 16:49 -19.77339 34.86657 38900 ft 491 kts 21°
2026-05-07 16:50 -19.71222 34.89735 38906 ft 483 kts 13°
2026-05-07 16:50 -19.64915 34.92063 38922 ft 480 kts 10°
2026-05-07 16:51 -19.58573 34.94295 38930 ft 480 kts 10°
2026-05-07 16:51 -19.52230 34.96541 38929 ft 481 kts 11°
2026-05-07 16:52 -19.45854 34.98807 38929 ft 482 kts 11°
2026-05-07 16:52 -19.39527 35.01056 38928 ft 483 kts 11°
2026-05-07 16:53 -19.33197 35.03308 38929 ft 483 kts 11°
2026-05-07 16:53 -19.26770 35.05592 38930 ft 483 kts 11°
2026-05-07 16:54 -19.20429 35.07840 38924 ft 484 kts 11°
2026-05-07 16:54 -19.14041 35.10107 38926 ft 485 kts 11°
2026-05-07 16:55 -19.07678 35.12364 38929 ft 485 kts 11°
2026-05-07 16:55 -19.01287 35.14627 38926 ft 485 kts 11°
2026-05-07 16:56 -18.94913 35.16883 38923 ft 485 kts 11°
2026-05-07 16:56 -18.85305 35.20279 38927 ft 485 kts 11°
2026-05-07 16:57 -18.78904 35.22541 38930 ft 485 kts 11°
2026-05-07 16:57 -18.72494 35.24804 38921 ft 485 kts 11°
2026-05-07 16:58 -18.67171 35.26680 38924 ft 486 kts 11°
2026-05-07 16:58 -18.60756 35.28942 38920 ft 486 kts 11°
2026-05-07 16:59 -18.54342 35.31200 38922 ft 486 kts 12°
2026-05-07 16:59 -18.47918 35.33463 38921 ft 486 kts 12°
2026-05-07 17:00 -18.41498 35.35724 38920 ft 486 kts 11°
2026-05-07 17:00 -18.35086 35.37980 38919 ft 486 kts 12°
2026-05-07 17:01 -18.28650 35.40243 38917 ft 486 kts 11°
2026-05-07 17:01 -18.22227 35.42500 38911 ft 486 kts 11°
2026-05-07 17:02 -18.15809 35.44753 38912 ft 486 kts 11°
2026-05-07 17:02 -18.09389 35.47005 38912 ft 486 kts 11°
2026-05-07 17:03 -18.02947 35.49261 38896 ft 486 kts 12°
2026-05-07 17:03 -17.96534 35.51505 38901 ft 486 kts 12°
2026-05-07 17:04 -17.90123 35.53751 38906 ft 486 kts 12°
2026-05-07 17:04 -17.83705 35.55997 38902 ft 486 kts 12°
2026-05-07 17:05 -17.77286 35.58240 38913 ft 486 kts 12°
2026-05-07 17:05 -17.70868 35.60480 38905 ft 486 kts 12°
2026-05-07 17:06 -17.64446 35.62722 38917 ft 486 kts 12°
2026-05-07 17:06 -17.58035 35.64960 38919 ft 486 kts 12°
2026-05-07 17:07 -17.51614 35.67197 38928 ft 486 kts 12°
2026-05-07 17:07 -17.45194 35.69426 38925 ft 486 kts 12°
2026-05-07 17:08 -17.38772 35.71650 38925 ft 486 kts 12°
2026-05-07 17:08 -17.32343 35.73882 38932 ft 486 kts 12°
2026-05-07 17:09 -17.25969 35.76094 38933 ft 486 kts 13°
2026-05-07 17:09 -17.19554 35.78319 38934 ft 485 kts 13°
2026-05-07 17:10 -17.13136 35.80543 38937 ft 485 kts 13°
2026-05-07 17:10 -17.06726 35.82759 38934 ft 484 kts 13°
2026-05-07 17:11 -17.00335 35.84972 38935 ft 484 kts 13°
2026-05-07 17:11 -16.93919 35.87191 38938 ft 484 kts 13°
2026-05-07 17:12 -16.87520 35.89402 38940 ft 484 kts 13°
2026-05-07 17:12 -16.81122 35.91610 38939 ft 484 kts 13°
2026-05-07 17:13 -16.74729 35.93813 38944 ft 484 kts 13°
2026-05-07 17:13 -16.68337 35.96018 38947 ft 484 kts 13°
2026-05-07 17:14 -16.61951 35.98219 38951 ft 484 kts 13°
2026-05-07 17:14 -16.55563 36.00419 38956 ft 484 kts 13°
2026-05-07 17:15 -16.49164 36.02615 38946 ft 483 kts 14°
2026-05-07 17:15 -16.42746 36.04821 38966 ft 483 kts 14°
2026-05-07 17:16 -16.36371 36.07014 38970 ft 482 kts 14°
2026-05-07 17:16 -16.29996 36.09204 38976 ft 482 kts 14°
2026-05-07 17:17 -16.23650 36.11381 38974 ft 482 kts 14°
2026-05-07 17:17 -16.17278 36.13563 38984 ft 482 kts 14°
2026-05-07 17:18 -16.10908 36.15748 38985 ft 482 kts 14°
2026-05-07 17:18 -16.04540 36.17931 38999 ft 482 kts 14°
2026-05-07 17:19 -15.98152 36.20118 38996 ft 482 kts 14°
2026-05-07 17:19 -15.91780 36.22257 39006 ft 482 kts 14°
2026-05-07 17:20 -15.85393 36.24385 38996 ft 482 kts 14°
2026-05-07 17:20 -15.79001 36.26523 39003 ft 483 kts 14°
2026-05-07 17:21 -15.72611 36.28661 39009 ft 483 kts 14°
2026-05-07 17:21 -15.66214 36.30800 39011 ft 483 kts 14°
2026-05-07 17:22 -15.59820 36.32936 39005 ft 483 kts 14°
2026-05-07 17:22 -15.53417 36.35071 39002 ft 483 kts 14°
2026-05-07 17:23 -15.47011 36.37209 39006 ft 483 kts 14°
2026-05-07 17:23 -15.40655 36.39329 39002 ft 483 kts 14°
2026-05-07 17:24 -15.34254 36.41461 39000 ft 483 kts 14°
2026-05-07 17:24 -15.27839 36.43597 39001 ft 483 kts 14°
2026-05-07 17:25 -15.21444 36.45724 38996 ft 483 kts 14°
2026-05-07 17:25 -15.15031 36.47857 39001 ft 483 kts 14°
2026-05-07 17:26 -15.08627 36.49985 39000 ft 483 kts 14°
2026-05-07 17:26 -15.02204 36.52115 38997 ft 483 kts 15°
2026-05-07 17:27 -14.95771 36.54249 38986 ft 482 kts 15°
2026-05-07 17:27 -14.89382 36.56369 38992 ft 482 kts 15°
2026-05-07 17:28 -14.82988 36.58490 38987 ft 482 kts 15°
2026-05-07 17:28 -14.76597 36.60607 38988 ft 482 kts 15°
2026-05-07 17:29 -14.70200 36.62725 38983 ft 482 kts 15°
2026-05-07 17:29 -14.63814 36.64834 38982 ft 482 kts 15°
2026-05-07 17:30 -14.57425 36.66946 38983 ft 482 kts 15°
2026-05-07 17:30 -14.51047 36.69053 38982 ft 482 kts 15°
2026-05-07 17:31 -14.44705 36.71147 38980 ft 481 kts 15°
2026-05-07 17:31 -14.38317 36.73255 38974 ft 481 kts 15°
2026-05-07 17:32 -14.31941 36.75359 38975 ft 481 kts 15°
2026-05-07 17:32 -14.26650 36.77104 38976 ft 481 kts 15°
2026-05-07 17:33 -14.19199 36.79559 38976 ft 481 kts 15°
2026-05-07 17:33 -14.12830 36.81657 38977 ft 481 kts 15°
2026-05-07 17:34 -14.06458 36.83755 38970 ft 480 kts 15°
2026-05-07 17:34 -14.00091 36.85854 38976 ft 480 kts 15°
2026-05-07 17:35 -13.93727 36.87982 38975 ft 480 kts 15°
2026-05-07 17:35 -13.87359 36.90116 38986 ft 480 kts 15°
2026-05-07 17:36 -13.80991 36.92248 38985 ft 480 kts 15°
2026-05-07 17:36 -13.74609 36.94382 38990 ft 480 kts 15°
2026-05-07 17:37 -13.68246 36.96509 38986 ft 480 kts 15°
2026-05-07 17:37 -13.61886 36.98634 38993 ft 480 kts 15°
2026-05-07 17:38 -13.55539 37.00753 38993 ft 480 kts 15°
2026-05-07 17:38 -13.49183 37.02873 38992 ft 480 kts 15°
2026-05-07 17:39 -13.42835 37.04989 38987 ft 479 kts 15°
2026-05-07 17:39 -13.36496 37.07103 38983 ft 479 kts 15°
2026-05-07 17:40 -13.30191 37.09203 38983 ft 479 kts 15°
2026-05-07 17:40 -13.23852 37.11314 38976 ft 479 kts 15°
2026-05-07 17:41 -13.17509 37.13425 38978 ft 479 kts 15°
2026-05-07 17:41 -13.11168 37.15532 38969 ft 478 kts 15°
2026-05-07 17:42 -13.04841 37.17636 38968 ft 477 kts 15°
2026-05-07 17:42 -12.98531 37.19733 38967 ft 477 kts 15°
2026-05-07 17:43 -12.92203 37.21836 38966 ft 477 kts 15°
2026-05-07 17:43 -12.85881 37.23935 38957 ft 477 kts 15°
2026-05-07 17:44 -12.80597 37.25691 38961 ft 477 kts 16°
2026-05-07 17:44 -12.74342 37.27837 38957 ft 477 kts 17°
2026-05-07 17:45 -12.68060 37.30002 38957 ft 477 kts 17°
2026-05-07 17:45 -12.61771 37.32164 38954 ft 476 kts 17°
2026-05-07 17:46 -12.55485 37.34322 38954 ft 477 kts 17°
2026-05-07 17:46 -12.49202 37.36473 38953 ft 476 kts 17°
2026-05-07 17:47 -12.42919 37.38628 38956 ft 476 kts 17°
2026-05-07 17:47 -12.36633 37.40783 38956 ft 476 kts 17°
2026-05-07 17:48 -12.30355 37.42933 38955 ft 476 kts 17°
2026-05-07 17:48 -12.24071 37.45083 38954 ft 476 kts 17°
2026-05-07 17:49 -12.17791 37.47231 38956 ft 476 kts 17°
2026-05-07 17:49 -12.11504 37.49380 38953 ft 476 kts 17°
2026-05-07 17:50 -12.05213 37.51531 38955 ft 477 kts 17°
2026-05-07 17:50 -11.98927 37.53678 38951 ft 477 kts 17°
2026-05-07 17:51 -11.92640 37.55823 38948 ft 476 kts 17°
2026-05-07 17:51 -11.86353 37.57968 38952 ft 476 kts 17°
2026-05-07 17:52 -11.80071 37.60113 38947 ft 476 kts 17°
2026-05-07 17:52 -11.73794 37.62255 38947 ft 476 kts 17°
2026-05-07 17:53 -11.67491 37.64404 38947 ft 476 kts 17°
2026-05-07 17:53 -11.61203 37.66529 38947 ft 476 kts 17°
2026-05-07 17:54 -11.54901 37.68588 38949 ft 475 kts 17°
2026-05-07 17:54 -11.48581 37.70652 38948 ft 475 kts 17°
2026-05-07 17:55 -11.42281 37.72713 38940 ft 475 kts 17°
2026-05-07 17:55 -11.35993 37.74772 38942 ft 475 kts 17°
2026-05-07 17:56 -11.29698 37.76831 38943 ft 474 kts 17°
2026-05-07 17:56 -11.23423 37.78885 38940 ft 473 kts 17°
2026-05-07 17:57 -11.18218 37.80588 38949 ft 473 kts 17°
2026-05-07 17:57 -11.10883 37.82988 38946 ft 473 kts 17°
2026-05-07 17:58 -11.04613 37.85037 38941 ft 473 kts 17°
2026-05-07 17:58 -10.98356 37.87080 38944 ft 473 kts 17°
2026-05-07 17:59 -10.92088 37.89127 38951 ft 473 kts 17°
2026-05-07 17:59 -10.85864 37.91159 38945 ft 473 kts 17°
2026-05-07 18:00 -10.79589 37.93207 38951 ft 473 kts 17°
2026-05-07 18:00 -10.73324 37.95250 38950 ft 473 kts 17°
2026-05-07 18:01 -10.67049 37.97296 38952 ft 474 kts 17°
2026-05-07 18:01 -10.60777 37.99339 38950 ft 474 kts 17°
2026-05-07 18:02 -10.51363 38.02405 38954 ft 474 kts 17°
2026-05-07 18:03 -10.45088 38.04447 38959 ft 474 kts 17°
2026-05-07 18:03 -10.38813 38.06490 38959 ft 474 kts 17°
2026-05-07 18:04 -10.32544 38.08529 38959 ft 473 kts 17°
2026-05-07 18:04 -10.26273 38.10566 38959 ft 473 kts 17°
2026-05-07 18:05 -10.20001 38.12603 38957 ft 473 kts 17°
2026-05-07 18:05 -10.13726 38.14641 38958 ft 473 kts 17°
2026-05-07 18:06 -10.07452 38.16679 38960 ft 473 kts 17°
2026-05-07 18:06 -10.01185 38.18710 38962 ft 472 kts 17°
2026-05-07 18:07 -9.94921 38.20740 38956 ft 473 kts 17°
2026-05-07 18:07 -9.88651 38.22774 38971 ft 473 kts 17°
2026-05-07 18:08 -9.82377 38.24807 38964 ft 473 kts 16°
2026-05-07 18:08 -9.76109 38.26835 38964 ft 471 kts 17°
2026-05-07 18:09 -9.69910 38.28845 38963 ft 470 kts 17°
2026-05-07 18:09 -9.63676 38.30863 38964 ft 470 kts 17°
2026-05-07 18:10 -9.57443 38.32881 38976 ft 470 kts 17°
2026-05-07 18:10 -9.51213 38.34898 38961 ft 470 kts 17°
2026-05-07 18:11 -9.44938 38.36925 38976 ft 469 kts 17°
2026-05-07 18:11 -9.38715 38.38936 38965 ft 469 kts 17°
2026-05-07 18:12 -9.32539 38.40933 38967 ft 469 kts 17°
2026-05-07 18:12 -9.26320 38.42942 38979 ft 469 kts 17°
2026-05-07 18:13 -9.20071 38.44960 38964 ft 469 kts 17°
2026-05-07 18:13 -9.13851 38.46967 38974 ft 469 kts 17°
2026-05-07 18:14 -9.07629 38.48974 38962 ft 469 kts 17°
2026-05-07 18:14 -9.01458 38.50966 38966 ft 469 kts 17°
2026-05-07 18:15 -8.95231 38.52975 38973 ft 469 kts 17°
2026-05-07 18:15 -8.89009 38.54980 38964 ft 469 kts 17°
2026-05-07 18:16 -8.82755 38.56995 38963 ft 468 kts 17°
2026-05-07 18:16 -8.76548 38.58996 38961 ft 468 kts 17°
2026-05-07 18:17 -8.70358 38.60990 38958 ft 468 kts 17°
2026-05-07 18:17 -8.64156 38.62987 38961 ft 468 kts 17°
2026-05-07 18:18 -8.57958 38.64983 38954 ft 468 kts 17°
2026-05-07 18:18 -8.51743 38.66984 38954 ft 469 kts 17°
2026-05-07 18:19 -8.45509 38.68988 38968 ft 469 kts 17°
2026-05-07 18:19 -8.39286 38.70987 38950 ft 469 kts 17°
2026-05-07 18:20 -8.33064 38.72988 38960 ft 469 kts 17°
2026-05-07 18:20 -8.26846 38.74987 38961 ft 469 kts 18°
2026-05-07 18:21 -8.20692 38.76964 38964 ft 467 kts 18°
2026-05-07 18:21 -8.14475 38.78967 38955 ft 466 kts 18°
2026-05-07 18:22 -8.08342 38.80941 38963 ft 466 kts 18°
2026-05-07 18:22 -8.02163 38.82928 38959 ft 466 kts 18°
2026-05-07 18:23 -7.95976 38.84914 38955 ft 466 kts 18°
2026-05-07 18:23 -7.89812 38.86893 38955 ft 464 kts 18°
2026-05-07 18:24 -7.83652 38.88874 38907 ft 462 kts 18°
2026-05-07 18:24 -7.80565 38.89866 38204 ft 457 kts 18°
2026-05-07 18:24 -7.77566 38.90831 36802 ft 463 kts 18°
2026-05-07 18:24 -7.74455 38.91832 35108 ft 476 kts 18°
2026-05-07 18:25 -7.71263 38.92858 33543 ft 486 kts 18°
2026-05-07 18:25 -7.68017 38.93899 31957 ft 492 kts 18°
2026-05-07 18:25 -7.64739 38.94945 30408 ft 496 kts 18°
2026-05-07 18:25 -7.61441 38.96002 28651 ft 499 kts 18°
2026-05-07 18:26 -7.58124 38.97065 27073 ft 499 kts 18°
2026-05-07 18:26 -7.54866 38.98109 26262 ft 482 kts 18°
2026-05-07 18:26 -7.52768 38.98781 25621 ft 473 kts 18°
2026-05-07 18:26 -7.49613 38.99793 24520 ft 466 kts 18°
2026-05-07 18:27 -7.46628 39.00750 24152 ft 452 kts 19°
2026-05-07 18:27 -7.43631 39.01712 23794 ft 450 kts 19°
2026-05-07 18:27 -7.40654 39.02667 23335 ft 447 kts 19°
2026-05-07 18:27 -7.37702 39.03614 22853 ft 442 kts 19°
2026-05-07 18:28 -7.34783 39.04549 22404 ft 438 kts 19°
2026-05-07 18:28 -7.31894 39.05476 21948 ft 434 kts 19°
2026-05-07 18:28 -7.29035 39.06392 21488 ft 430 kts 19°
2026-05-07 18:28 -7.26196 39.07303 21054 ft 426 kts 19°
2026-05-07 18:29 -7.23385 39.08203 20613 ft 423 kts 19°
2026-05-07 18:29 -7.20590 39.09099 20178 ft 419 kts 19°
2026-05-07 18:29 -7.17829 39.09983 19739 ft 416 kts 19°
2026-05-07 18:29 -7.15076 39.10865 19281 ft 413 kts 19°
2026-05-07 18:30 -7.12342 39.11740 18845 ft 411 kts 19°
2026-05-07 18:30 -7.09632 39.12608 18387 ft 409 kts 19°
2026-05-07 18:30 -7.06925 39.13475 17884 ft 407 kts 19°
2026-05-07 18:30 -7.04247 39.14335 17395 ft 405 kts 19°
2026-05-07 18:31 -7.01562 39.15194 16903 ft 402 kts 19°
2026-05-07 18:31 -6.98901 39.16046 16450 ft 399 kts 19°
2026-05-07 18:31 -6.96263 39.16890 16034 ft 395 kts 19°
2026-05-07 18:31 -6.93685 39.17714 15887 ft 382 kts 19°
2026-05-07 18:32 -6.91192 39.18505 15747 ft 370 kts 17°
2026-05-07 18:32 -6.88700 39.19002 15596 ft 361 kts
2026-05-07 18:32 -6.86212 39.19063 15279 ft 357 kts 358°
2026-05-07 18:32 -6.83742 39.18852 14922 ft 355 kts 355°
2026-05-07 18:33 -6.81288 39.18594 14568 ft 354 kts 355°
2026-05-07 18:33 -6.78842 39.18333 14202 ft 352 kts 355°
2026-05-07 18:33 -6.76447 39.18083 13844 ft 351 kts 355°
2026-05-07 18:33 -6.74019 39.17836 13430 ft 350 kts 355°
2026-05-07 18:34 -6.71604 39.17596 13040 ft 348 kts 355°
2026-05-07 18:34 -6.69204 39.17359 12664 ft 345 kts 355°
2026-05-07 18:34 -6.66822 39.17125 12291 ft 343 kts 355°
2026-05-07 18:34 -6.64455 39.16894 11932 ft 341 kts 355°
2026-05-07 18:35 -6.62101 39.16664 11576 ft 338 kts 355°
2026-05-07 18:35 -6.59762 39.16435 11209 ft 337 kts 355°
2026-05-07 18:35 -6.57441 39.16210 10855 ft 335 kts 355°
2026-05-07 18:35 -6.55130 39.15985 10503 ft 333 kts 355°
2026-05-07 18:36 -6.52834 39.15760 10182 ft 330 kts 355°
2026-05-07 18:36 -6.50582 39.15540 10093 ft 317 kts 355°
2026-05-07 18:36 -6.48430 39.15330 10022 ft 304 kts 355°
2026-05-07 18:36 -6.46360 39.15128 9940 ft 294 kts 355°
2026-05-07 18:37 -6.44326 39.14930 9612 ft 294 kts 355°
2026-05-07 18:37 -6.42289 39.14732 9263 ft 293 kts 355°
2026-05-07 18:37 -6.40263 39.14535 8962 ft 292 kts 355°
2026-05-07 18:37 -6.38246 39.14338 8648 ft 291 kts 355°
2026-05-07 18:38 -6.36240 39.14142 8341 ft 289 kts 355°
2026-05-07 18:38 -6.34242 39.13948 8042 ft 287 kts 355°
2026-05-07 18:38 -6.32257 39.13754 7711 ft 287 kts 355°
2026-05-07 18:38 -6.30270 39.13560 7417 ft 286 kts 355°
2026-05-07 18:39 -6.28291 39.13368 7113 ft 285 kts 355°
2026-05-07 18:39 -6.26317 39.13176 6805 ft 285 kts 355°
2026-05-07 18:39 -6.24349 39.12984 6498 ft 285 kts 355°
2026-05-07 18:39 -6.22381 39.12793 6187 ft 284 kts 355°
2026-05-07 18:40 -6.20422 39.12603 5884 ft 282 kts 355°
2026-05-07 18:40 -6.18475 39.12414 5583 ft 280 kts 355°
2026-05-07 18:40 -6.16535 39.12225 5286 ft 279 kts 355°
2026-05-07 18:40 -6.14606 39.12039 5021 ft 278 kts 355°
2026-05-07 18:41 -6.12688 39.11852 4723 ft 277 kts 355°
2026-05-07 18:41 -6.10774 39.11664 4429 ft 276 kts 355°
2026-05-07 18:41 -6.08874 39.11478 4165 ft 272 kts 355°
2026-05-07 18:41 -6.07025 39.11412 4075 ft 259 kts 13°
2026-05-07 18:42 -6.05497 39.12197 3931 ft 244 kts 49°
2026-05-07 18:42 -6.04656 39.13639 3681 ft 238 kts 71°
2026-05-07 18:42 -6.04088 39.15205 3419 ft 237 kts 73°
2026-05-07 18:42 -6.03598 39.16786 3164 ft 237 kts 77°
2026-05-07 18:43 -6.03455 39.18408 2872 ft 231 kts 106°
2026-05-07 18:43 -6.04205 39.19736 2803 ft 212 kts 139°
2026-05-07 18:43 -6.05354 39.20603 2826 ft 204 kts 149°
2026-05-07 18:43 -6.06698 39.21049 2746 ft 206 kts 171°
2026-05-07 18:44 -6.08129 39.21158 2514 ft 207 kts 175°
2026-05-07 18:44 -6.09570 39.21237 2254 ft 207 kts 174°
2026-05-07 18:44 -6.10986 39.21354 2015 ft 201 kts 172°
2026-05-07 18:44 -6.12349 39.21493 1742 ft 193 kts 172°
2026-05-07 18:45 -6.13646 39.21626 1460 ft 181 kts 172°
2026-05-07 18:45 -6.14858 39.21750 1220 ft 168 kts 172°
2026-05-07 18:45 -6.15985 39.21862 976 ft 157 kts 173°
2026-05-07 18:45 -6.17047 39.21963 809 ft 152 kts 172°
2026-05-07 18:46 -6.18101 39.22069 651 ft 152 kts 171°
2026-05-07 18:46 -6.19151 39.22178 485 ft 152 kts 170°
2026-05-07 18:46 -6.20196 39.22292 279 ft 150 kts 172°
2026-05-07 18:46 -6.21233 39.22391 94 ft 148 kts 172°
2026-05-07 18:47 -6.22153 39.22484 60 ft 108 kts 174°
2026-05-07 18:47 -6.22716 39.22541 62 ft 58 kts 174°
2026-05-07 18:47 -6.22968 39.22547 57 ft 14 kts 225°
2026-05-07 18:47 -6.22993 39.22475 60 ft 7 kts 262°
2026-05-07 18:48 -6.22994 39.22468 60 ft 0 kts 263°
2026-05-07 18:48 -6.22994 39.22466 59 ft 0 kts 263°
2026-05-07 18:48 -6.22995 39.22462 59 ft 1 kts 263°
2026-05-07 18:48 -6.22995 39.22457 59 ft 2 kts 263°
2026-05-07 18:49 -6.22995 39.22432 59 ft 5 kts 282°
2026-05-07 18:49 -6.22967 39.22402 61 ft 7 kts 339°
2026-05-07 18:49 -6.22906 39.22391 63 ft 10 kts 352°
2026-05-07 18:49 -6.22825 39.22382 59 ft 13 kts 354°
2026-05-07 18:50 -6.22723 39.22371 63 ft 17 kts 354°
2026-05-07 18:50 -6.22613 39.22362 59 ft 16 kts 355°
2026-05-07 18:50 -6.22520 39.22353 63 ft 12 kts 354°
2026-05-07 18:50 -6.22473 39.22348 63 ft 8 kts 353°
2026-05-07 18:51 -6.22441 39.22324 59 ft 3 kts 291°
2026-05-07 18:51 -6.22436 39.22293 61 ft 0 kts 272°
2026-05-07 18:51 -6.22436 39.22287 61 ft 2 kts 272°
2026-05-07 18:51 -6.22431 39.22261 61 ft 5 kts 296°
2026-05-07 18:52 -6.22402 39.22255 65 ft 7 kts
2026-05-07 18:52 -6.22384 39.22254 62 ft 2 kts 357°
2026-05-07 18:52 -6.22372 39.22254 64 ft 1 kts 356°
2026-05-07 18:52 -6.22362 39.22253 64 ft 0 kts 356°
2026-05-07 18:53 -6.22351 39.22252 63 ft 3 kts 355°
2026-05-07 18:53 -6.22342 39.22251 65 ft 0 kts 355°